Year,Month,Day,Hour,Minute,Value (Times are PST for temperature in C)
2011,08,21,00,00,16.70
2011,08,21,00,01,16.70
2011,08,21,00,02,16.70
2011,08,21,00,03,16.70
2011,08,21,00,04,16.70
2011,08,21,00,05,16.70
2011,08,21,00,06,16.60
2011,08,21,00,07,16.60
2011,08,21,00,08,16.60
2011,08,21,00,09,16.60
2011,08,21,00,10,16.50
2011,08,21,00,11,16.50
2011,08,21,00,12,16.50
2011,08,21,00,13,16.40
2011,08,21,00,14,16.40
2011,08,21,00,15,16.40
2011,08,21,00,16,16.40
2011,08,21,00,17,16.30
2011,08,21,00,18,16.30
2011,08,21,00,19,16.30
2011,08,21,00,20,16.30
2011,08,21,00,21,16.20
2011,08,21,00,22,16.20
2011,08,21,00,23,16.20
2011,08,21,00,24,16.20
2011,08,21,00,25,16.20
2011,08,21,00,26,16.20
2011,08,21,00,27,16.10
2011,08,21,00,28,16.10
2011,08,21,00,29,16.10
2011,08,21,00,30,16.10
2011,08,21,00,31,16.10
2011,08,21,00,32,16.10
2011,08,21,00,33,16.00
2011,08,21,00,34,16.00
2011,08,21,00,35,16.00
2011,08,21,00,36,16.00
2011,08,21,00,37,15.90
2011,08,21,00,38,15.90
2011,08,21,00,39,15.90
2011,08,21,00,40,15.90
2011,08,21,00,41,15.90
2011,08,21,00,42,15.90
2011,08,21,00,43,15.90
2011,08,21,00,44,15.80
2011,08,21,00,45,15.80
2011,08,21,00,46,15.80
2011,08,21,00,47,15.80
2011,08,21,00,48,15.80
2011,08,21,00,49,15.80
2011,08,21,00,50,15.70
2011,08,21,00,51,15.70
2011,08,21,00,52,15.70
2011,08,21,00,53,15.70
2011,08,21,00,54,15.70
2011,08,21,00,55,15.60
2011,08,21,00,56,15.60
2011,08,21,00,57,15.60
2011,08,21,00,58,15.60
2011,08,21,00,59,15.60
2011,08,21,01,00,15.50
2011,08,21,01,01,15.50
2011,08,21,01,02,15.50
2011,08,21,01,03,15.40
2011,08,21,01,04,15.40
2011,08,21,01,05,15.40
2011,08,21,01,06,15.40
2011,08,21,01,07,15.40
2011,08,21,01,08,15.40
2011,08,21,01,09,15.40
2011,08,21,01,10,15.40
2011,08,21,01,11,15.40
2011,08,21,01,12,15.40
2011,08,21,01,13,15.40
2011,08,21,01,14,15.40
2011,08,21,01,15,15.40
2011,08,21,01,16,15.40
2011,08,21,01,17,15.50
2011,08,21,01,18,15.50
2011,08,21,01,19,15.50
2011,08,21,01,20,15.50
2011,08,21,01,21,15.50
2011,08,21,01,22,15.50
2011,08,21,01,23,15.50
2011,08,21,01,24,15.50
2011,08,21,01,25,15.50
2011,08,21,01,26,15.50
2011,08,21,01,27,15.50
2011,08,21,01,28,15.50
2011,08,21,01,29,15.50
2011,08,21,01,30,15.50
2011,08,21,01,31,15.50
2011,08,21,01,32,15.50
2011,08,21,01,33,15.50
2011,08,21,01,34,15.50
2011,08,21,01,35,15.50
2011,08,21,01,36,15.50
2011,08,21,01,37,15.50
2011,08,21,01,38,15.50
2011,08,21,01,39,15.50
2011,08,21,01,40,15.50
2011,08,21,01,41,15.60
2011,08,21,01,42,15.60
2011,08,21,01,43,15.60
2011,08,21,01,44,15.60
2011,08,21,01,45,15.60
2011,08,21,01,46,15.60
2011,08,21,01,47,15.60
2011,08,21,01,48,15.50
2011,08,21,01,49,15.50
2011,08,21,01,50,15.60
2011,08,21,01,51,15.60
2011,08,21,01,52,15.70
2011,08,21,01,53,15.70
2011,08,21,01,54,15.80
2011,08,21,01,55,15.80
2011,08,21,01,56,15.80
2011,08,21,01,57,15.80
2011,08,21,01,58,15.90
2011,08,21,01,59,15.90
2011,08,21,02,00,15.90
2011,08,21,02,01,15.90
2011,08,21,02,02,15.90
2011,08,21,02,03,15.90
2011,08,21,02,04,15.90
2011,08,21,02,05,15.90
2011,08,21,02,06,15.90
2011,08,21,02,07,15.90
2011,08,21,02,08,15.90
2011,08,21,02,09,15.90
2011,08,21,02,10,15.90
2011,08,21,02,11,15.90
2011,08,21,02,12,15.90
2011,08,21,02,13,15.90
2011,08,21,02,14,15.90
2011,08,21,02,15,15.90
2011,08,21,02,16,15.90
2011,08,21,02,17,15.90
2011,08,21,02,18,15.90
2011,08,21,02,19,15.90
2011,08,21,02,20,15.90
2011,08,21,02,21,15.90
2011,08,21,02,22,15.90
2011,08,21,02,23,15.90
2011,08,21,02,24,15.90
2011,08,21,02,25,15.90
2011,08,21,02,26,15.90
2011,08,21,02,27,15.80
2011,08,21,02,28,15.80
2011,08,21,02,29,15.80
2011,08,21,02,30,15.80
2011,08,21,02,31,15.80
2011,08,21,02,32,15.80
2011,08,21,02,33,15.80
2011,08,21,02,34,15.80
2011,08,21,02,35,15.80
2011,08,21,02,36,15.80
2011,08,21,02,37,15.80
2011,08,21,02,38,15.80
2011,08,21,02,39,15.70
2011,08,21,02,40,15.70
2011,08,21,02,41,15.70
2011,08,21,02,42,15.70
2011,08,21,02,43,15.70
2011,08,21,02,44,15.70
2011,08,21,02,45,15.70
2011,08,21,02,46,15.70
2011,08,21,02,47,15.60
2011,08,21,02,48,15.60
2011,08,21,02,49,15.60
2011,08,21,02,50,15.60
2011,08,21,02,51,15.60
2011,08,21,02,52,15.60
2011,08,21,02,53,15.50
2011,08,21,02,54,15.50
2011,08,21,02,55,15.50
2011,08,21,02,56,15.50
2011,08,21,02,57,15.50
2011,08,21,02,58,15.50
2011,08,21,02,59,15.40
2011,08,21,03,00,15.40
2011,08,21,03,01,15.40
2011,08,21,03,02,15.40
2011,08,21,03,03,15.40
2011,08,21,03,04,15.40
2011,08,21,03,05,15.30
2011,08,21,03,06,15.30
2011,08,21,03,07,15.30
2011,08,21,03,08,15.30
2011,08,21,03,09,15.30
2011,08,21,03,10,15.30
2011,08,21,03,11,15.20
2011,08,21,03,12,15.20
2011,08,21,03,13,15.20
2011,08,21,03,14,15.20
2011,08,21,03,15,15.20
2011,08,21,03,16,15.20
2011,08,21,03,17,15.10
2011,08,21,03,18,15.10
2011,08,21,03,19,15.10
2011,08,21,03,20,15.10
2011,08,21,03,21,15.10
2011,08,21,03,22,15.10
2011,08,21,03,23,15.10
2011,08,21,03,24,15.10
2011,08,21,03,25,15.10
2011,08,21,03,26,15.10
2011,08,21,03,27,15.10
2011,08,21,03,28,15.10
2011,08,21,03,29,15.10
2011,08,21,03,30,15.10
2011,08,21,03,31,15.10
2011,08,21,03,32,15.10
2011,08,21,03,33,15.00
2011,08,21,03,34,15.00
2011,08,21,03,35,15.00
2011,08,21,03,36,15.00
2011,08,21,03,37,15.00
2011,08,21,03,38,15.00
2011,08,21,03,39,15.00
2011,08,21,03,40,15.00
2011,08,21,03,41,15.00
2011,08,21,03,42,15.00
2011,08,21,03,43,15.10
2011,08,21,03,44,15.10
2011,08,21,03,45,15.10
2011,08,21,03,46,15.10
2011,08,21,03,47,15.10
2011,08,21,03,48,15.10
2011,08,21,03,49,15.10
2011,08,21,03,50,15.10
2011,08,21,03,51,15.10
2011,08,21,03,52,15.20
2011,08,21,03,53,15.30
2011,08,21,03,54,15.50
2011,08,21,03,55,15.60
2011,08,21,03,56,15.80
2011,08,21,03,57,15.90
2011,08,21,03,58,16.10
2011,08,21,03,59,16.20
2011,08,21,04,00,16.30
2011,08,21,04,01,16.50
2011,08,21,04,02,16.60
2011,08,21,04,03,16.70
2011,08,21,04,04,16.70
2011,08,21,04,05,16.80
2011,08,21,04,06,16.80
2011,08,21,04,07,16.90
2011,08,21,04,08,16.90
2011,08,21,04,09,16.80
2011,08,21,04,10,16.80
2011,08,21,04,11,16.70
2011,08,21,04,12,16.70
2011,08,21,04,13,16.70
2011,08,21,04,14,16.60
2011,08,21,04,15,16.60
2011,08,21,04,16,16.50
2011,08,21,04,17,16.50
2011,08,21,04,18,16.50
2011,08,21,04,19,16.40
2011,08,21,04,20,16.40
2011,08,21,04,21,16.40
2011,08,21,04,22,16.30
2011,08,21,04,23,16.30
2011,08,21,04,24,16.30
2011,08,21,04,25,16.30
2011,08,21,04,26,16.30
2011,08,21,04,27,16.40
2011,08,21,04,28,16.40
2011,08,21,04,29,16.40
2011,08,21,04,30,16.40
2011,08,21,04,31,16.50
2011,08,21,04,32,16.60
2011,08,21,04,33,16.60
2011,08,21,04,34,16.60
2011,08,21,04,35,16.70
2011,08,21,04,36,16.80
2011,08,21,04,37,16.80
2011,08,21,04,38,16.80
2011,08,21,04,39,16.80
2011,08,21,04,40,16.80
2011,08,21,04,41,16.80
2011,08,21,04,42,16.90
2011,08,21,04,43,16.90
2011,08,21,04,44,16.90
2011,08,21,04,45,16.90
2011,08,21,04,46,16.90
2011,08,21,04,47,16.90
2011,08,21,04,48,17.00
2011,08,21,04,49,17.00
2011,08,21,04,50,17.00
2011,08,21,04,51,17.10
2011,08,21,04,52,17.10
2011,08,21,04,53,17.10
2011,08,21,04,54,17.10
2011,08,21,04,55,17.10
2011,08,21,04,56,17.10
2011,08,21,04,57,17.10
2011,08,21,04,58,17.10
2011,08,21,04,59,17.10
2011,08,21,05,00,17.10
2011,08,21,05,01,17.10
2011,08,21,05,02,17.10
2011,08,21,05,03,17.10
2011,08,21,05,04,17.10
2011,08,21,05,05,17.00
2011,08,21,05,06,17.00
2011,08,21,05,07,17.00
2011,08,21,05,08,17.00
2011,08,21,05,09,17.00
2011,08,21,05,10,16.90
2011,08,21,05,11,16.90
2011,08,21,05,12,16.90
2011,08,21,05,13,16.90
2011,08,21,05,14,16.90
2011,08,21,05,15,16.90
2011,08,21,05,16,16.90
2011,08,21,05,17,16.90
2011,08,21,05,18,16.90
2011,08,21,05,19,16.90
2011,08,21,05,20,16.90
2011,08,21,05,21,16.90
2011,08,21,05,22,16.90
2011,08,21,05,23,16.90
2011,08,21,05,24,16.90
2011,08,21,05,25,16.90
2011,08,21,05,26,16.90
2011,08,21,05,27,16.90
2011,08,21,05,28,16.90
2011,08,21,05,29,16.90
2011,08,21,05,30,16.90
2011,08,21,05,31,16.90
2011,08,21,05,32,16.90
2011,08,21,05,33,16.90
2011,08,21,05,34,16.90
2011,08,21,05,35,16.90
2011,08,21,05,36,16.90
2011,08,21,05,37,16.80
2011,08,21,05,38,16.80
2011,08,21,05,39,16.80
2011,08,21,05,40,16.80
2011,08,21,05,41,16.80
2011,08,21,05,42,16.80
2011,08,21,05,43,16.80
2011,08,21,05,44,16.80
2011,08,21,05,45,16.80
2011,08,21,05,46,16.80
2011,08,21,05,47,16.80
2011,08,21,05,48,16.80
2011,08,21,05,49,16.80
2011,08,21,05,50,16.70
2011,08,21,05,51,16.70
2011,08,21,05,52,16.70
2011,08,21,05,53,16.70
2011,08,21,05,54,16.70
2011,08,21,05,55,16.70
2011,08,21,05,56,16.70
2011,08,21,05,57,16.70
2011,08,21,05,58,16.70
2011,08,21,05,59,16.70
2011,08,21,06,00,16.70
2011,08,21,06,01,16.70
2011,08,21,06,02,16.70
2011,08,21,06,03,16.60
2011,08,21,06,04,16.60
2011,08,21,06,05,16.60
2011,08,21,06,06,16.60
2011,08,21,06,07,16.60
2011,08,21,06,08,16.70
2011,08,21,06,09,16.70
2011,08,21,06,10,16.70
2011,08,21,06,11,16.70
2011,08,21,06,12,16.70
2011,08,21,06,13,16.60
2011,08,21,06,14,16.60
2011,08,21,06,15,16.60
2011,08,21,06,16,16.60
2011,08,21,06,17,16.60
2011,08,21,06,18,16.60
2011,08,21,06,19,16.60
2011,08,21,06,20,16.60
2011,08,21,06,21,16.50
2011,08,21,06,22,16.60
2011,08,21,06,23,16.50
2011,08,21,06,24,16.50
2011,08,21,06,25,16.60
2011,08,21,06,26,16.50
2011,08,21,06,27,16.50
2011,08,21,06,28,16.50
2011,08,21,06,29,16.50
2011,08,21,06,30,16.50
2011,08,21,06,31,16.50
2011,08,21,06,32,16.40
2011,08,21,06,33,16.40
2011,08,21,06,34,16.40
2011,08,21,06,35,16.40
2011,08,21,06,36,16.40
2011,08,21,06,37,16.40
2011,08,21,06,38,16.40
2011,08,21,06,39,16.40
2011,08,21,06,40,16.40
2011,08,21,06,41,16.40
2011,08,21,06,42,16.40
2011,08,21,06,43,16.40
2011,08,21,06,44,16.30
2011,08,21,06,45,16.30
2011,08,21,06,46,16.30
2011,08,21,06,47,16.30
2011,08,21,06,48,16.30
2011,08,21,06,49,16.30
2011,08,21,06,50,16.30
2011,08,21,06,51,16.30
2011,08,21,06,52,16.30
2011,08,21,06,53,16.30
2011,08,21,06,54,16.30
2011,08,21,06,55,16.30
2011,08,21,06,56,16.30
2011,08,21,06,57,16.20
2011,08,21,06,58,16.20
2011,08,21,06,59,16.20
2011,08,21,07,00,16.20
2011,08,21,07,01,16.20
2011,08,21,07,02,16.20
2011,08,21,07,03,16.20
2011,08,21,07,04,16.20
2011,08,21,07,05,16.20
2011,08,21,07,06,16.30
2011,08,21,07,07,16.30
2011,08,21,07,08,16.30
2011,08,21,07,09,16.30
2011,08,21,07,10,16.30
2011,08,21,07,11,16.30
2011,08,21,07,12,16.30
2011,08,21,07,13,16.40
2011,08,21,07,14,16.40
2011,08,21,07,15,16.40
2011,08,21,07,16,16.40
2011,08,21,07,17,16.40
2011,08,21,07,18,16.40
2011,08,21,07,19,16.40
2011,08,21,07,20,16.40
2011,08,21,07,21,16.40
2011,08,21,07,22,16.40
2011,08,21,07,23,16.40
2011,08,21,07,24,16.40
2011,08,21,07,25,16.40
2011,08,21,07,26,16.40
2011,08,21,07,27,16.40
2011,08,21,07,28,16.40
2011,08,21,07,29,16.40
2011,08,21,07,30,16.50
2011,08,21,07,31,16.50
2011,08,21,07,32,16.50
2011,08,21,07,33,16.50
2011,08,21,07,34,16.50
2011,08,21,07,35,16.60
2011,08,21,07,36,16.60
2011,08,21,07,37,16.60
2011,08,21,07,38,16.60
2011,08,21,07,39,16.60
2011,08,21,07,40,16.60
2011,08,21,07,41,16.60
2011,08,21,07,42,16.60
2011,08,21,07,43,16.70
2011,08,21,07,44,16.70
2011,08,21,07,45,16.80
2011,08,21,07,46,16.80
2011,08,21,07,47,16.90
2011,08,21,07,48,17.00
2011,08,21,07,49,17.10
2011,08,21,07,50,17.10
2011,08,21,07,51,17.20
2011,08,21,07,52,17.20
2011,08,21,07,53,17.20
2011,08,21,07,54,17.30
2011,08,21,07,55,17.30
2011,08,21,07,56,17.30
2011,08,21,07,57,17.30
2011,08,21,07,58,17.30
2011,08,21,07,59,17.30
2011,08,21,08,00,17.40
2011,08,21,08,01,17.40
2011,08,21,08,02,17.40
2011,08,21,08,03,17.40
2011,08,21,08,04,17.50
2011,08,21,08,05,17.50
2011,08,21,08,06,17.60
2011,08,21,08,07,17.60
2011,08,21,08,08,17.60
2011,08,21,08,09,17.70
2011,08,21,08,10,17.70
2011,08,21,08,11,17.70
2011,08,21,08,12,17.70
2011,08,21,08,13,17.70
2011,08,21,08,14,17.70
2011,08,21,08,15,17.80
2011,08,21,08,16,17.80
2011,08,21,08,17,17.80
2011,08,21,08,18,17.80
2011,08,21,08,19,17.80
2011,08,21,08,20,17.90
2011,08,21,08,21,17.90
2011,08,21,08,22,17.90
2011,08,21,08,23,17.90
2011,08,21,08,24,17.90
2011,08,21,08,25,17.90
2011,08,21,08,26,17.90
2011,08,21,08,27,17.90
2011,08,21,08,28,17.90
2011,08,21,08,29,17.90
2011,08,21,08,30,17.90
2011,08,21,08,31,17.90
2011,08,21,08,32,17.90
2011,08,21,08,33,17.90
2011,08,21,08,34,17.90
2011,08,21,08,35,17.90
2011,08,21,08,36,18.00
2011,08,21,08,37,18.00
2011,08,21,08,38,18.10
2011,08,21,08,39,18.10
2011,08,21,08,40,18.10
2011,08,21,08,41,18.10
2011,08,21,08,42,18.20
2011,08,21,08,43,18.20
2011,08,21,08,44,18.20
2011,08,21,08,45,18.20
2011,08,21,08,46,18.30
2011,08,21,08,47,18.30
2011,08,21,08,48,18.30
2011,08,21,08,49,18.30
2011,08,21,08,50,18.40
2011,08,21,08,51,18.40
2011,08,21,08,52,18.50
2011,08,21,08,53,18.50
2011,08,21,08,54,18.50
2011,08,21,08,55,18.60
2011,08,21,08,56,18.60
2011,08,21,08,57,18.60
2011,08,21,08,58,18.60
2011,08,21,08,59,18.70
2011,08,21,09,00,18.70
2011,08,21,09,01,18.70
2011,08,21,09,02,18.70
2011,08,21,09,03,18.80
2011,08,21,09,04,18.80
2011,08,21,09,05,18.90
2011,08,21,09,06,18.90
2011,08,21,09,07,18.90
2011,08,21,09,08,19.00
2011,08,21,09,09,19.00
2011,08,21,09,10,19.10
2011,08,21,09,11,19.10
2011,08,21,09,12,19.20
2011,08,21,09,13,19.20
2011,08,21,09,14,19.30
2011,08,21,09,15,19.30
2011,08,21,09,16,19.30
2011,08,21,09,17,19.40
2011,08,21,09,18,19.40
2011,08,21,09,19,19.40
2011,08,21,09,20,19.40
2011,08,21,09,21,19.40
2011,08,21,09,22,19.50
2011,08,21,09,23,19.50
2011,08,21,09,24,19.50
2011,08,21,09,25,19.60
2011,08,21,09,26,19.60
2011,08,21,09,27,19.60
2011,08,21,09,28,19.70
2011,08,21,09,29,19.70
2011,08,21,09,30,19.80
2011,08,21,09,31,19.80
2011,08,21,09,32,19.80
2011,08,21,09,33,19.80
2011,08,21,09,34,19.90
2011,08,21,09,35,19.90
2011,08,21,09,36,19.90
2011,08,21,09,37,20.00
2011,08,21,09,38,20.00
2011,08,21,09,39,20.10
2011,08,21,09,40,20.10
2011,08,21,09,41,20.10
2011,08,21,09,42,20.20
2011,08,21,09,43,20.20
2011,08,21,09,44,20.30
2011,08,21,09,45,20.30
2011,08,21,09,46,20.40
2011,08,21,09,47,20.40
2011,08,21,09,48,20.50
2011,08,21,09,49,20.60
2011,08,21,09,50,20.60
2011,08,21,09,51,20.60
2011,08,21,09,52,20.70
2011,08,21,09,53,20.70
2011,08,21,09,54,20.80
2011,08,21,09,55,20.80
2011,08,21,09,56,20.80
2011,08,21,09,57,20.90
2011,08,21,09,58,20.90
2011,08,21,09,59,20.90
2011,08,21,10,00,20.90
2011,08,21,10,01,20.90
2011,08,21,10,02,21.00
2011,08,21,10,03,21.00
2011,08,21,10,04,21.10
2011,08,21,10,05,21.10
2011,08,21,10,06,21.10
2011,08,21,10,07,21.10
2011,08,21,10,08,21.10
2011,08,21,10,09,21.10
2011,08,21,10,10,21.10
2011,08,21,10,11,21.20
2011,08,21,10,12,21.20
2011,08,21,10,13,21.20
2011,08,21,10,14,21.30
2011,08,21,10,15,21.30
2011,08,21,10,16,21.30
2011,08,21,10,17,21.40
2011,08,21,10,18,21.40
2011,08,21,10,19,21.40
2011,08,21,10,20,21.40
2011,08,21,10,21,21.50
2011,08,21,10,22,21.50
2011,08,21,10,23,21.50
2011,08,21,10,24,21.60
2011,08,21,10,25,21.60
2011,08,21,10,26,21.70
2011,08,21,10,27,21.70
2011,08,21,10,28,21.70
2011,08,21,10,29,21.80
2011,08,21,10,30,21.80
2011,08,21,10,31,21.80
2011,08,21,10,32,21.90
2011,08,21,10,33,21.90
2011,08,21,10,34,21.90
2011,08,21,10,35,21.90
2011,08,21,10,36,22.00
2011,08,21,10,37,22.00
2011,08,21,10,38,22.10
2011,08,21,10,39,22.10
2011,08,21,10,40,22.10
2011,08,21,10,41,22.20
2011,08,21,10,42,22.20
2011,08,21,10,43,22.30
2011,08,21,10,44,22.30
2011,08,21,10,45,22.40
2011,08,21,10,46,22.50
2011,08,21,10,47,22.50
2011,08,21,10,48,22.60
2011,08,21,10,49,22.60
2011,08,21,10,50,22.70
2011,08,21,10,51,22.70
2011,08,21,10,52,22.70
2011,08,21,10,53,22.70
2011,08,21,10,54,22.70
2011,08,21,10,55,22.80
2011,08,21,10,56,22.80
2011,08,21,10,57,22.90
2011,08,21,10,58,22.90
2011,08,21,10,59,23.00
2011,08,21,11,00,23.00
2011,08,21,11,01,23.10
2011,08,21,11,02,23.10
2011,08,21,11,03,23.20
2011,08,21,11,04,23.20
2011,08,21,11,05,23.20
2011,08,21,11,06,23.30
2011,08,21,11,07,23.30
2011,08,21,11,08,23.30
2011,08,21,11,09,23.40
2011,08,21,11,10,23.40
2011,08,21,11,11,23.40
2011,08,21,11,12,23.40
2011,08,21,11,13,23.40
2011,08,21,11,14,23.40
2011,08,21,11,15,23.40
2011,08,21,11,16,23.40
2011,08,21,11,17,23.50
2011,08,21,11,18,23.50
2011,08,21,11,19,23.50
2011,08,21,11,20,23.60
2011,08,21,11,21,23.60
2011,08,21,11,22,23.60
2011,08,21,11,23,23.60
2011,08,21,11,24,23.70
2011,08,21,11,25,23.70
2011,08,21,11,26,23.70
2011,08,21,11,27,23.70
2011,08,21,11,28,23.70
2011,08,21,11,29,23.80
2011,08,21,11,30,23.80
2011,08,21,11,31,23.80
2011,08,21,11,32,23.80
2011,08,21,11,33,23.90
2011,08,21,11,34,23.90
2011,08,21,11,35,23.90
2011,08,21,11,36,24.00
2011,08,21,11,37,24.10
2011,08,21,11,38,24.10
2011,08,21,11,39,24.10
2011,08,21,11,40,24.20
2011,08,21,11,41,24.10
2011,08,21,11,42,24.10
2011,08,21,11,43,24.10
2011,08,21,11,44,24.00
2011,08,21,11,45,23.90
2011,08,21,11,46,23.80
2011,08,21,11,47,23.60
2011,08,21,11,48,23.40
2011,08,21,11,49,23.20
2011,08,21,11,50,23.10
2011,08,21,11,51,23.00
2011,08,21,11,52,22.80
2011,08,21,11,53,22.70
2011,08,21,11,54,22.70
2011,08,21,11,55,22.70
2011,08,21,11,56,22.70
2011,08,21,11,57,22.80
2011,08,21,11,58,22.80
2011,08,21,11,59,22.80
2011,08,21,12,00,22.80
2011,08,21,12,01,22.80
2011,08,21,12,02,22.80
2011,08,21,12,03,22.80
2011,08,21,12,04,22.90
2011,08,21,12,05,22.90
2011,08,21,12,06,23.00
2011,08,21,12,07,23.00
2011,08,21,12,08,23.10
2011,08,21,12,09,23.20
2011,08,21,12,10,23.20
2011,08,21,12,11,23.30
2011,08,21,12,12,23.30
2011,08,21,12,13,23.40
2011,08,21,12,14,23.40
2011,08,21,12,15,23.40
2011,08,21,12,16,23.40
2011,08,21,12,17,23.50
2011,08,21,12,18,23.60
2011,08,21,12,19,23.60
2011,08,21,12,20,23.70
2011,08,21,12,21,23.70
2011,08,21,12,22,23.80
2011,08,21,12,23,23.80
2011,08,21,12,24,23.80
2011,08,21,12,25,23.80
2011,08,21,12,26,23.90
2011,08,21,12,27,24.00
2011,08,21,12,28,24.10
2011,08,21,12,29,24.10
2011,08,21,12,30,24.20
2011,08,21,12,31,24.20
2011,08,21,12,32,24.30
2011,08,21,12,33,24.30
2011,08,21,12,34,24.30
2011,08,21,12,35,24.30
2011,08,21,12,36,24.40
2011,08,21,12,37,24.50
2011,08,21,12,38,24.60
2011,08,21,12,39,24.70
2011,08,21,12,40,24.90
2011,08,21,12,41,25.00
2011,08,21,12,42,25.10
2011,08,21,12,43,25.20
2011,08,21,12,44,25.20
2011,08,21,12,45,25.30
2011,08,21,12,46,25.30
2011,08,21,12,47,25.40
2011,08,21,12,48,25.50
2011,08,21,12,49,25.60
2011,08,21,12,50,25.60
2011,08,21,12,51,25.70
2011,08,21,12,52,25.80
2011,08,21,12,53,25.80
2011,08,21,12,54,25.90
2011,08,21,12,55,25.90
2011,08,21,12,56,26.00
2011,08,21,12,57,26.00
2011,08,21,12,58,26.10
2011,08,21,12,59,26.20
2011,08,21,13,00,26.20
2011,08,21,13,01,26.20
2011,08,21,13,02,26.10
2011,08,21,13,03,26.10
2011,08,21,13,04,26.10
2011,08,21,13,05,26.10
2011,08,21,13,06,26.00
2011,08,21,13,07,25.90
2011,08,21,13,08,25.90
2011,08,21,13,09,25.90
2011,08,21,13,10,25.90
2011,08,21,13,11,25.90
2011,08,21,13,12,25.90
2011,08,21,13,13,25.90
2011,08,21,13,14,25.90
2011,08,21,13,15,25.90
2011,08,21,13,16,26.00
2011,08,21,13,17,26.00
2011,08,21,13,18,26.00
2011,08,21,13,19,26.10
2011,08,21,13,20,26.10
2011,08,21,13,21,26.20
2011,08,21,13,22,26.40
2011,08,21,13,23,26.50
2011,08,21,13,24,26.60
2011,08,21,13,25,26.80
2011,08,21,13,26,26.90
2011,08,21,13,27,27.00
2011,08,21,13,28,27.00
2011,08,21,13,29,26.90
2011,08,21,13,30,27.00
2011,08,21,13,31,27.00
2011,08,21,13,32,27.00
2011,08,21,13,33,27.10
2011,08,21,13,34,27.10
2011,08,21,13,35,27.00
2011,08,21,13,36,27.00
2011,08,21,13,37,26.90
2011,08,21,13,38,26.80
2011,08,21,13,39,26.80
2011,08,21,13,40,26.80
2011,08,21,13,41,26.80
2011,08,21,13,42,26.80
2011,08,21,13,43,26.80
2011,08,21,13,44,26.80
2011,08,21,13,45,26.80
2011,08,21,13,46,26.90
2011,08,21,13,47,26.90
2011,08,21,13,48,26.90
2011,08,21,13,49,26.90
2011,08,21,13,50,27.00
2011,08,21,13,51,27.00
2011,08,21,13,52,27.10
2011,08,21,13,53,27.20
2011,08,21,13,54,27.10
2011,08,21,13,55,27.10
2011,08,21,13,56,27.00
2011,08,21,13,57,26.80
2011,08,21,13,58,26.70
2011,08,21,13,59,26.50
2011,08,21,14,00,26.40
2011,08,21,14,01,26.30
2011,08,21,14,02,26.10
2011,08,21,14,03,26.00
2011,08,21,14,04,25.90
2011,08,21,14,05,25.90
2011,08,21,14,06,25.80
2011,08,21,14,07,25.70
2011,08,21,14,08,25.70
2011,08,21,14,09,25.70
2011,08,21,14,10,25.70
2011,08,21,14,11,25.80
2011,08,21,14,12,25.90
2011,08,21,14,13,26.00
2011,08,21,14,14,26.10
2011,08,21,14,15,26.20
2011,08,21,14,16,26.30
2011,08,21,14,17,26.30
2011,08,21,14,18,26.50
2011,08,21,14,19,26.60
2011,08,21,14,20,26.60
2011,08,21,14,21,26.60
2011,08,21,14,22,26.70
2011,08,21,14,23,26.70
2011,08,21,14,24,26.70
2011,08,21,14,25,26.60
2011,08,21,14,26,26.60
2011,08,21,14,27,26.60
2011,08,21,14,28,26.50
2011,08,21,14,29,26.50
2011,08,21,14,30,26.60
2011,08,21,14,31,26.60
2011,08,21,14,32,26.70
2011,08,21,14,33,26.80
2011,08,21,14,34,26.90
2011,08,21,14,35,27.00
2011,08,21,14,36,27.00
2011,08,21,14,37,27.10
2011,08,21,14,38,27.20
2011,08,21,14,39,27.20
2011,08,21,14,40,27.20
2011,08,21,14,41,27.30
2011,08,21,14,42,27.30
2011,08,21,14,43,27.30
2011,08,21,14,44,27.20
2011,08,21,14,45,27.20
2011,08,21,14,46,27.20
2011,08,21,14,47,27.30
2011,08,21,14,48,27.30
2011,08,21,14,49,27.20
2011,08,21,14,50,27.10
2011,08,21,14,51,27.10
2011,08,21,14,52,27.10
2011,08,21,14,53,27.10
2011,08,21,14,54,27.10
2011,08,21,14,55,27.10
2011,08,21,14,56,27.20
2011,08,21,14,57,27.20
2011,08,21,14,58,27.30
2011,08,21,14,59,27.50
2011,08,21,15,00,27.60
2011,08,21,15,01,27.70
2011,08,21,15,02,27.60
2011,08,21,15,03,27.60
2011,08,21,15,04,27.60
2011,08,21,15,05,27.60
2011,08,21,15,06,27.50
2011,08,21,15,07,27.50
2011,08,21,15,08,27.50
2011,08,21,15,09,27.40
2011,08,21,15,10,27.40
2011,08,21,15,11,27.40
2011,08,21,15,12,27.40
2011,08,21,15,13,27.50
2011,08,21,15,14,27.50
2011,08,21,15,15,27.60
2011,08,21,15,16,27.70
2011,08,21,15,17,27.80
2011,08,21,15,18,27.80
2011,08,21,15,19,27.80
2011,08,21,15,20,27.80
2011,08,21,15,21,27.70
2011,08,21,15,22,27.80
2011,08,21,15,23,27.70
2011,08,21,15,24,27.70
2011,08,21,15,25,27.70
2011,08,21,15,26,27.60
2011,08,21,15,27,27.50
2011,08,21,15,28,27.40
2011,08,21,15,29,27.30
2011,08,21,15,30,27.20
2011,08,21,15,31,27.20
2011,08,21,15,32,27.20
2011,08,21,15,33,27.20
2011,08,21,15,34,27.30
2011,08,21,15,35,27.40
2011,08,21,15,36,27.40
2011,08,21,15,37,27.50
2011,08,21,15,38,27.60
2011,08,21,15,39,27.60
2011,08,21,15,40,27.60
2011,08,21,15,41,27.60
2011,08,21,15,42,27.50
2011,08,21,15,43,27.40
2011,08,21,15,44,27.30
2011,08,21,15,45,27.30
2011,08,21,15,46,27.30
2011,08,21,15,47,27.10
2011,08,21,15,48,27.10
2011,08,21,15,49,27.00
2011,08,21,15,50,26.90
2011,08,21,15,51,26.80
2011,08,21,15,52,26.80
2011,08,21,15,53,26.80
2011,08,21,15,54,26.80
2011,08,21,15,55,26.90
2011,08,21,15,56,26.90
2011,08,21,15,57,26.90
2011,08,21,15,58,27.00
2011,08,21,15,59,27.10
2011,08,21,16,00,27.10
2011,08,21,16,01,27.20
2011,08,21,16,02,27.20
2011,08,21,16,03,27.20
2011,08,21,16,04,27.20
2011,08,21,16,05,27.20
2011,08,21,16,06,27.30
2011,08,21,16,07,27.30
2011,08,21,16,08,27.30
2011,08,21,16,09,27.30
2011,08,21,16,10,27.30
2011,08,21,16,11,27.30
2011,08,21,16,12,27.20
2011,08,21,16,13,27.20
2011,08,21,16,14,27.10
2011,08,21,16,15,27.00
2011,08,21,16,16,26.90
2011,08,21,16,17,26.70
2011,08,21,16,18,26.50
2011,08,21,16,19,26.40
2011,08,21,16,20,26.30
2011,08,21,16,21,26.20
2011,08,21,16,22,26.20
2011,08,21,16,23,26.10
2011,08,21,16,24,26.10
2011,08,21,16,25,26.00
2011,08,21,16,26,26.00
2011,08,21,16,27,26.00
2011,08,21,16,28,26.00
2011,08,21,16,29,25.90
2011,08,21,16,30,26.00
2011,08,21,16,31,26.00
2011,08,21,16,32,26.10
2011,08,21,16,33,26.10
2011,08,21,16,34,26.20
2011,08,21,16,35,26.30
2011,08,21,16,36,26.30
2011,08,21,16,37,26.30
2011,08,21,16,38,26.30
2011,08,21,16,39,26.30
2011,08,21,16,40,26.30
2011,08,21,16,41,26.30
2011,08,21,16,42,26.40
2011,08,21,16,43,26.40
2011,08,21,16,44,26.40
2011,08,21,16,45,26.50
2011,08,21,16,46,26.50
2011,08,21,16,47,26.60
2011,08,21,16,48,26.60
2011,08,21,16,49,26.60
2011,08,21,16,50,26.50
2011,08,21,16,51,26.50
2011,08,21,16,52,26.40
2011,08,21,16,53,26.30
2011,08,21,16,54,26.20
2011,08,21,16,55,26.20
2011,08,21,16,56,26.20
2011,08,21,16,57,26.10
2011,08,21,16,58,26.10
2011,08,21,16,59,26.10
2011,08,21,17,00,26.00
2011,08,21,17,01,26.00
2011,08,21,17,02,25.90
2011,08,21,17,03,26.00
2011,08,21,17,04,26.00
2011,08,21,17,05,26.10
2011,08,21,17,06,26.10
2011,08,21,17,07,26.20
2011,08,21,17,08,26.20
2011,08,21,17,09,26.30
2011,08,21,17,10,26.30
2011,08,21,17,11,26.40
2011,08,21,17,12,26.40
2011,08,21,17,13,26.50
2011,08,21,17,14,26.50
2011,08,21,17,15,26.60
2011,08,21,17,16,26.60
2011,08,21,17,17,26.60
2011,08,21,17,18,26.50
2011,08,21,17,19,26.50